Temp
20 20 20 21 22 22 22 22 22 22 23 23 23 23 23 23 23 24 24 24 24 24 24 24 23 23 23 23 23 23 23 22 22 22 22 22 22 22 22 22 22 22 22 22 22 22 22 22 22 22 22 22 22 22 22 22 22 21 21 22 22 22 22 22 22 22 22 22 22 22 21 21 21 21 21 21 21 21 21 21 21 21 21 21 21
20 20 20 21 22 21 22 22 22 23 23 23 23 23 23 23 23 23 23 23 23 23 23 23 23 23 23 23 23 23 22 22 22 22 22 22 22 22 22 22 22 22 22 22 22 22 22 22 22 22 22 21 21 22 22 22 21 21 21 22 21 21 22 22 22 22 22 22 22 21 21 21 21 21 21 21 21 21 21 21 21 21 21 21 21
21 20 20 21 21 21 22 22 22 23 22 23 23 23 23 23 23 23 22 22 22 22 22 22 23 23 23 23 23 23 22 22 22 22 22 22 22 21 22 22 22 22 22 22 22 22 22 22 21 21 22 21 21 21 22 21 21 22 21 21 21 21 21 21 21 21 21 21 21 21 21 21 21 21 21 21 21 21 21 21 21 21 21 21 21
21 21 21 21 21 21 22 22 22 23 22 23 23 24 24 24 23 23 22 22 22 22 22 22 23 23 23 23 23 22 22 22 22 22 22 22 21 21 22 22 22 22 22 22 22 22 22 21 21 21 21 21 21 21 22 22 21 21 21 21 21 21 21 21 21 21 21 21 21 21 21 21 21 21 21 21 21 21 21 21 21 21 21 21 21
21 21 21 21 21 21 22 22 22 23 22 23 23 24 24 23 23 22 22 22 22 22 22 22 22 23 23 23 22 22 22 22 22 22 22 21 21 21 22 22 21 21 21 21 22 22 21 21 21 22 21 21 21 21 21 21 21 21 21 21 21 21 21 21 21 21 21 21 22 21 21 21 21 21 21 21 21 21 21 21 21 21 21 21 21
21 21 21 21 21 22 22 22 22 22 23 23 23 23 23 23 22 22 22 22 22 22 22 22 22 22 22 22 22 22 22 22 22 22 22 21 21 21 21 22 21 21 21 21 22 22 21 21 22 22 22 22 21 21 21 21 21 21 21 21 21 21 21 21 21 21 21 21 21 21 21 21 21 21 21 21 21 21 21 21 21 21 21 21 21
22 21 21 21 22 22 22 22 23 23 23 23 23 23 23 23 22 22 22 22 22 22 22 22 22 22 22 22 22 22 22 22 22 22 22 22 21 21 21 22 22 21 21 21 21 21 22 22 22 22 22 22 22 21 21 21 21 21 21 21 21 21 21 21 21 21 21 21 21 21 21 21 21 21 21 21 21 21 21 21 21 21 21 21 21
22 22 22 22 22 22 22 22 23 23 23 23 23 23 23 23 22 22 22 22 22 22 22 22 22 22 22 22 22 22 21 21 22 22 22 22 21 21 21 22 22 22 22 21 21 21 22 22 22 22 22 22 22 21 21 21 21 21 21 21 21 21 21 21 21 21 21 21 21 21 21 21 21 21 21 21 21 21 21 21 21 21 21 21 21
22 22 22 22 22 22 22 22 22 23 23 23 23 23 23 22 22 22 22 22 22 22 22 22 22 22 22 22 22 22 22 22 22 22 22 22 22 22 22 22 22 22 22 21 21 21 21 22 22 22 22 22 21 21 21 21 21 21 21 21 21 21 21 21 21 21 21 21 21 21 21 21 21 21 21 21 21 21 21 21 21 21 21 21 21
22 22 22 22 22 22 22 22 22 22 22 23 23 22 22 22 22 22 22 22 22 22 22 22 22 22 22 22 22 22 22 22 22 22 21 22 22 22 22 22 22 22 21 21 21 21 21 22 22 22 22 22 21 21 21 21 21 21 21 21 21 21 21 21 21 21 21 21 21 21 21 21 21 21 21 21 21 21 21 21 21 21 21 21 21
22 22 22 22 22 22 22 22 22 22 22 23 23 22 22 22 22 22 22 22 22 22 22 22 22 22 22 22 22 22 22 22 22 22 22 22 22 22 21 21 21 21 21 21 21 21 21 22 22 22 22 21 21 21 21 21 21 21 21 21 21 21 21 21 21 21 21 21 21 21 21 21 21 21 21 21 21 21 21 21 21 21 21 21 21
22 22 22 22 22 22 22 22 22 22 23 23 22 22 22 22 22 22 22 22 22 22 22 22 22 21 22 22 22 22 22 22 22 22 22 22 22 22 22 21 21 21 22 22 21 21 21 21 22 22 22 21 21 21 21 21 21 21 21 21 21 21 21 21 21 21 21 21 21 21 21 21 21 21 21 21 21 21 21 21 21 21 21 21 21
22 22 22 22 22 22 22 22 22 22 23 23 22 22 22 22 22 22 22 22 22 22 22 22 22 21 21 21 21 22 22 22 22 22 22 22 21 21 21 21 21 21 22 21 21 21 21 21 22 22 22 21 21 21 21 21 21 21 21 21 21 21 21 21 21 21 21 21 21 21 21 21 21 21 21 21 21 21 21 21 21 21 21 21 20
22 22 22 22 22 22 22 22 22 23 23 23 22 22 22 22 22 22 22 22 22 22 22 21 22 22 21 22 22 22 22 22 22 22 22 22 22 21 21 21 21 21 21 21 21 21 22 22 22 22 22 21 21 21 21 21 21 21 21 21 21 21 21 21 21 21 21 21 21 21 21 21 21 21 21 21 21 22 21 21 21 21 21 21 20
22 22 22 22 22 22 22 22 23 23 23 23 22 22 22 22 22 22 22 22 22 22 22 22 22 22 22 22 22 22 22 22 22 22 22 22 22 22 22 22 21 21 21 21 21 22 22 22 22 22 22 21 21 21 21 21 21 21 21 21 21 21 21 21 21 21 21 21 21 21 21 21 21 21 21 21 21 21 21 21 21 21 21 21 21
22 22 22 22 22 22 22 22 23 23 23 23 22 22 22 22 22 22 22 22 22 22 22 22 22 22 22 22 22 22 22 22 22 22 22 22 22 22 22 22 21 21 21 21 21 21 22 22 22 22 22 21 21 21 21 21 21 21 21 21 21 21 22 22 22 21 21 21 21 21 21 21 21 21 21 21 21 21 21 21 21 21 21 21 21
22 22 22 22 22 22 23 23 23 23 23 23 22 22 22 22 22 22 22 22 22 22 22 22 22 22 22 22 22 22 22 22 22 22 22 22 22 22 22 22 21 21 21 21 21 21 22 22 22 22 22 21 21 21 21 21 21 21 21 21 21 21 21 22 22 21 21 21 21 21 21 21 21 21 21 21 21 21 21 21 21 21 21 21 21
22 22 22 22 22 23 23 23 23 22 22 22 22 22 22 22 22 22 22 22 22 22 22 22 22 22 22 22 22 22 22 22 22 22 22 22 22 22 22 22 21 21 21 21 21 22 22 22 22 22 22 21 21 21 21 21 21 21 21 21 21 21 21 21 21 21 21 21 21 21 21 21 21 21 21 21 21 21 21 21 21 21 21 20 20
22 22 22 22 23 23 22 22 22 22 22 22 22 22 22 22 22 22 22 22 22 22 22 22 22 22 22 22 22 22 22 22 22 22 22 22 22 22 22 22 21 21 21 21 21 22 22 22 22 22 22 21 21 21 21 21 21 21 21 21 21 21 21 21 21 21 21 21 21 21 21 21 21 21 21 21 21 21 21 21 21 21 21 21 20
22 22 22 22 22 22 22 22 22 22 22 22 22 22 22 22 22 22 22 22 22 22 22 22 22 22 22 22 22 22 22 22 22 22 22 22 22 22 22 22 22 21 21 21 21 22 22 22 22 22 22 22 22 21 21 21 21 21 21 21 21 21 22 22 22 21 21 21 21 21 21 21 21 21 21 21 21 21 21 21 21 21 20 21 20
21 22 22 22 22 22 22 22 22 22 22 22 22 22 22 22 22 22 22 22 22 22 22 22 22 22 22 22 22 22 22 22 22 22 22 22 22 22 22 22 22 22 22 22 22 22 22 22 22 22 22 22 22 22 21 21 21 21 21 21 21 21 22 22 22 21 21 21 21 21 21 21 21 21 21 21 21 21 21 21 21 21 20 21 20
21 21 21 21 22 22 22 22 22 22 22 22 22 22 22 22 22 22 22 22 22 22 22 22 22 22 22 22 22 22 22 22 22 22 22 22 22 22 22 22 22 22 22 22 22 22 22 22 22 22 22 22 22 22 22 22 22 21 21 21 21 21 21 22 22 21 21 21 21 21 21 21 21 21 21 21 21 21 21 21 21 21 21 21 20
21 21 21 21 22 22 22 22 22 22 22 22 22 22 22 22 22 22 22 22 22 22 22 22 22 22 22 22 22 22 22 22 22 22 22 22 22 22 22 22 22 22 22 22 22 22 22 22 22 22 22 22 22 22 22 22 22 22 21 21 21 21 21 22 22 22 22 21 21 21 21 21 21 21 21 21 21 21 21 21 21 21 21 21 21
21 21 21 21 22 22 22 22 22 22 22 22 22 22 22 22 22 22 22 22 22 22 22 22 22 22 22 22 22 22 22 22 22 22 22 22 22 22 22 22 22 22 22 22 22 22 22 22 22 22 22 22 22 22 22 22 22 22 22 22 21 21 22 22 22 22 22 21 21 21 21 21 21 21 21 21 21 21 21 21 21 21 21 21 21
22 22 21 21 22 22 22 22 22 22 22 22 22 22 22 22 22 22 22 22 22 22 22 22 22 22 22 22 22 22 22 22 22 22 22 22 22 22 22 22 22 22 22 23 22 22 22 22 23 23 23 23 23 23 22 22 22 22 22 22 22 22 22 22 22 22 22 22 21 21 21 21 21 21 21 21 21 21 21 21 21 21 21 21 21
22 22 22 22 22 22 22 22 22 22 22 22 22 22 22 22 22 22 22 22 22 22 22 22 22 22 22 22 22 22 22 22 22 22 22 22 22 22 22 23 23 23 23 23 23 23 23 23 23 23 23 23 23 23 23 23 22 22 22 22 22 22 22 23 23 22 22 22 22 21 21 21 20 20 21 21 21 21 21 21 21 21 21 21 21
23 22 22 22 22 22 21 21 22 22 22 22 22 22 22 22 22 22 22 22 22 22 22 22 22 22 22 22 22 22 22 22 22 23 23 22 22 22 23 23 23 23 23 23 23 23 23 23 23 23 23 23 23 23 23 23 23 23 22 22 22 22 23 23 23 23 22 22 22 22 21 21 20 20 20 20 21 21 21 21 21 21 21 21 21
23 22 22 22 22 22 21 21 22 22 22 22 22 22 22 22 22 22 22 22 22 23 23 23 22 22 22 22 22 22 23 22 23 23 23 23 23 23 23 23 23 23 23 23 23 23 23 23 24 24 24 24 23 23 23 23 23 23 23 23 22 22 23 23 23 23 23 23 22 22 22 21 21 20 20 20 20 21 21 21 21 21 21 21 21
23 23 22 22 22 22 22 22 22 22 22 22 22 23 23 22 22 22 22 22 23 23 23 23 23 23 23 22 22 22 23 23 23 23 23 23 23 23 23 23 23 23 23 23 23 23 23 24 24 24 24 24 24 24 23 23 23 23 23 23 23 23 23 23 23 23 23 23 23 22 22 21 21 20 20 20 20 20 20 21 20 20 20 20 21
24 23 23 23 22 22 22 22 22 22 23 23 23 23 23 23 23 23 22 22 23 23 23 23 23 23 23 23 22 22 23 23 23 23 23 23 23 23 23 23 23 23 23 23 23 23 23 24 24 24 24 24 24 24 24 24 23 24 24 23 23 23 23 23 23 23 23 23 23 22 22 22 21 21 21 20 20 20 20 20 20 20 20 20 20
24 23 23 23 23 23 23 23 22 22 23 23 23 23 23 23 23 23 22 23 23 23 23 23 23 23 23 23 23 23 23 23 23 23 23 23 23 23 23 23 23 23 23 23 23 23 23 23 23 24 24 24 24 24 24 24 24 23 24 24 23 23 23 23 23 23 23 23 23 23 22 22 22 21 21 21 21 21 20 20 20 20 20 20 20
24 24 24 23 23 23 23 23 23 23 23 23 23 23 23 23 23 23 23 23 23 23 24 23 23 23 23 23 23 23 23 23 23 23 23 23 23 23 23 23 23 23 23 23 23 23 23 23 23 24 24 24 24 25 25 25 24 24 24 24 24 24 24 23 23 23 23 23 23 23 22 22 22 22 22 22 22 21 21 21 21 21 21 21 21
24 24 24 24 24 23 23 23 23 23 23 23 23 23 23 23 23 24 23 23 23 24 24 24 24 24 23 23 23 23 23 23 23 23 23 23 23 23 23 23 23 23 23 23 23 23 23 23 24 24 24 24 25 25 25 25 25 24 24 24 24 24 24 24 23 23 23 23 23 23 23 22 22 22 22 22 22 22 22 22 21 21 21 21 22
25 24 24 24 24 24 23 23 23 23 23 23 23 23 23 23 23 24 24 23 24 24 24 24 24 24 24 24 24 23 23 24 24 23 24 23 23 23 23 23 23 23 23 23 23 23 24 24 24 24 25 25 25 25 25 25 25 25 25 24 24 24 24 24 24 24 24 24 23 23 23 23 23 22 22 22 22 22 22 22 22 22 22 22 22
25 25 24 24 24 24 24 24 23 23 24 24 24 24 23 23 24 24 24 24 24 24 24 24 24 24 24 24 24 24 24 24 24 24 24 23 23 23 23 23 23 23 23 23 23 23 24 24 24 24 25 25 25 25 25 26 26 25 25 25 25 24 24 24 24 24 24 24 24 23 23 23 23 23 23 23 23 22 22 22 22 22 22 22 22
25 25 25 25 24 24 24 24 24 24 24 24 24 24 24 24 24 24 24 24 24 24 24 24 24 24 24 24 24 24 24 24 24 24 23 23 23 23 23 23 23 23 23 23 23 23 24 24 24 25 25 25 25 25 26 26 26 26 26 25 25 25 24 24 24 24 24 24 24 24 23 23 23 23 23 23 23 23 23 22 22 22 22 22 22
26 25 25 25 25 24 24 24 24 24 24 24 24 24 24 24 24 24 24 24 24 24 24 24 24 24 24 24 24 24 24 24 23 23 24 24 23 23 23 23 23 23 23 23 23 23 24 24 24 25 25 25 25 26 26 26 26 26 26 25 25 25 25 24 24 24 24 24 24 24 24 24 23 23 23 23 23 23 23 23 23 22 22 22 22
26 26 25 25 25 25 24 24 24 24 24 24 24 24 24 24 24 24 24 24 24 24 24 24 24 24 24 24 24 24 24 24 23 23 24 23 23 23 23 23 23 23 23 24 24 24 24 24 24 25 25 25 25 26 26 26 26 26 26 26 26 25 25 25 25 24 24 24 24 24 24 24 24 23 23 23 23 23 23 23 23 22 22 22 22
26 26 26 25 25 25 24 24 24 24 24 24 24 24 24 24 25 25 24 24 24 24 24 24 24 24 25 24 24 24 24 24 24 23 24 23 23 23 23 23 23 23 24 24 24 24 24 24 24 25 25 25 25 26 26 26 26 26 26 26 26 26 25 25 25 25 25 25 25 25 25 24 24 24 24 24 24 23 23 23 23 23 23 23 23
26 26 26 25 25 25 25 25 24 24 24 24 24 24 24 24 25 25 24 24 24 24 25 25 25 25 25 25 24 24 24 24 24 24 24 24 24 24 23 23 23 24 24 24 24 24 24 24 24 25 25 25 26 26 26 26 26 26 26 26 26 26 25 25 25 25 25 25 25 25 25 25 25 24 24 24 24 24 24 23 23 23 23 23 23
26 26 26 26 25 25 25 25 25 24 24 24 24 24 24 25 25 25 25 25 25 25 25 25 25 25 25 25 25 24 24 24 24 24 24 24 24 24 23 23 23 24 24 24 24 24 24 24 24 25 25 25 26 26 26 26 26 26 26 26 26 26 26 25 25 25 25 25 25 25 25 25 25 25 25 24 24 24 24 24 24 24 23 23 23
26 26 26 26 25 25 25 25 25 24 25 25 25 25 25 25 25 25 25 25 25 25 25 25 25 25 25 25 25 25 24 24 24 24 24 24 24 24 24 23 24 24 24 24 24 24 24 24 25 25 25 25 26 26 26 26 26 25 25 25 25 26 26 26 26 26 26 26 25 25 25 25 25 25 25 24 24 24 24 24 24 24 24 24 23
26 26 26 26 25 25 25 25 25 25 25 25 25 25 25 25 25 25 26 26 25 25 25 25 25 25 25 25 25 25 24 24 24 24 24 24 24 24 24 24 24 24 24 24 24 24 24 24 25 25 25 25 26 26 26 26 26 25 25 25 24 25 25 25 26 26 26 26 26 25 25 25 25 25 25 25 24 25 25 24 24 24 24 24 24
27 26 26 26 25 25 25 25 25 25 25 25 25 25 25 25 25 26 26 26 26 26 26 25 25 25 25 25 25 25 24 25 24 24 24 24 24 24 24 24 24 24 24 24 24 24 24 24 25 25 25 25 25 26 26 26 26 26 25 24 24 24 25 25 25 26 26 26 26 26 26 26 26 26 25 25 25 25 25 25 25 24 24 24 24
27 26 26 26 25 25 25 25 25 25 25 25 25 25 25 25 25 26 26 26 26 25 25 25 25 25 25 25 25 25 25 25 25 24 24 24 24 24 24 24 24 24 24 24 24 24 24 24 25 25 25 25 25 26 26 26 26 26 25 25 24 24 25 25 25 26 26 26 26 26 26 26 26 26 25 25 25 25 25 25 25 25 25 25 25
27 27 26 26 25 25 25 25 25 25 25 25 25 25 25 25 26 26 25 25 25 25 25 25 24 25 25 25 25 25 25 25 25 25 24 24 24 24 24 24 24 24 24 24 24 24 24 24 25 25 25 25 25 25 26 26 26 26 26 26 26 25 26 25 24 25 26 27 27 26 26 26 27 26 26 26 26 26 25 25 25 25 25 25 25
27 27 26 26 26 25 25 25 25 25 25 25 25 25 25 25 26 26 25 25 26 25 26 26 25 25 25 25 25 25 24 25 25 25 24 24 24 24 24 24 24 24 24 24 24 24 24 24 25 25 25 25 25 25 26 26 26 26 26 26 26 26 26 26 25 25 25 26 27 27 27 27 27 27 26 26 26 26 26 26 26 26 26 25 25
27 27 26 26 26 25 25 25 25 25 25 25 25 25 25 25 25 26 26 26 26 26 26 26 26 26 25 25 25 25 24 24 25 25 24 24 24 24 24 24 24 24 24 24 24 24 24 24 24 25 25 25 25 25 25 26 26 26 26 26 26 26 26 26 26 26 25 25 26 26 27 27 27 27 26 26 26 26 26 26 26 26 26 26 26
27 27 26 26 26 25 25 25 25 25 25 25 25 25 25 25 25 26 26 26 26 26 26 26 26 26 25 25 25 25 24 24 25 24 24 24 24 24 24 24 24 24 24 24 25 24 24 25 25 24 25 25 25 25 25 25 26 25 26 26 26 26 26 26 27 26 25 26 26 25 26 27 26 27 27 26 27 27 26 26 26 26 26 26 26
27 27 27 26 26 25 25 25 25 25 25 25 25 25 25 25 25 26 26 26 26 26 26 26 26 25 25 25 25 24 24 24 24 24 24 24 24 24 24 24 24 24 24 25 25 25 25 25 25 25 25 25 25 25 25 25 25 25 26 26 26 26 27 27 27 27 26 26 26 25 25 26 26 27 27 27 27 27 27 27 27 27 27 27 26
27 27 27 26 26 25 25 25 25 25 25 25 25 25 25 25 25 26 26 26 26 26 26 26 25 25 25 25 25 25 25 24 24 24 24 24 24 24 24 24 24 24 24 25 25 25 25 25 25 25 25 25 25 25 25 25 25 25 26 26 26 27 27 27 27 27 26 25 25 25 26 26 26 27 28 27 27 27 27 27 27 27 27 27 27
Height
819 820 820 819 820 821 822 822 823 823 824 825 825 826 827 827 827 828 829 830 830 831 831 831 832 833 834 834 835 835 835 835 835 836 836 836 836 837 836 837 836 837 836 836 836 836 837 836 837 837 837 837 837 837 837 838 839 839 839 839 839 840 840 841 841 841 841 841 842 842 842 842 842 842 842 842 842 842 842 843 843 843 843 844 844
818 821 822 821 822 823 824 824 825 825 825 826 827 828 828 829 829 830 831 832 832 832 832 833 833 834 834 834 835 835 836 836 836 836 837 837 837 838 837 837 837 837 837 837 837 837 837 837 838 837 838 838 838 838 838 839 839 840 840 840 840 840 841 842 842 842 842 842 843 843 843 843 843 843 843 843 843 843 844 844 843 844 844 844 845
817 821 822 823 825 825 826 826 826 826 827 827 828 828 829 830 831 832 832 833 834 834 834 834 835 835 835 835 835 836 836 837 837 838 838 838 838 839 838 838 838 838 838 838 838 838 838 838 839 838 839 839 839 839 839 840 840 840 841 841 841 841 842 842 843 843 843 844 844 844 844 844 844 844 844 844 845 845 845 845 845 844 845 845 845
818 820 822 824 826 827 827 827 828 828 829 829 829 829 830 831 831 832 833 834 834 835 835 835 836 835 836 836 836 837 837 838 839 839 839 839 839 839 839 839 839 839 839 839 839 839 839 840 840 839 840 840 840 840 840 841 841 842 842 842 842 842 843 843 844 844 844 844 844 845 845 845 845 845 845 846 846 846 846 846 846 846 846 846 846
819 820 822 824 826 827 828 828 829 830 830 830 831 831 832 832 833 833 833 834 835 835 836 836 837 837 837 837 838 838 839 840 840 840 840 841 841 840 840 840 840 840 840 840 840 840 840 841 840 841 841 841 841 841 842 842 842 843 843 843 843 843 844 844 845 845 845 845 845 845 846 846 846 847 847 847 847 847 847 847 847 847 847 847 848
819 821 823 824 826 827 828 830 830 831 832 832 833 833 834 834 834 835 835 835 836 837 837 838 838 838 838 839 840 840 841 841 841 842 842 842 841 841 841 841 841 841 841 841 841 841 841 842 842 842 842 842 842 842 843 843 843 843 843 844 844 844 844 845 845 846 846 846 846 846 846 847 847 848 848 848 848 848 848 848 848 848 848 848 849
819 821 823 824 826 827 829 830 831 832 833 833 834 835 835 836 836 836 837 837 837 838 838 839 839 840 840 840 841 842 842 842 843 843 842 842 842 842 842 842 842 842 842 842 842 842 842 843 843 843 843 843 843 844 844 844 844 844 844 844 845 845 845 846 846 847 847 847 847 847 848 848 848 849 849 848 849 849 849 849 849 849 849 850 850
820 822 823 825 827 828 830 831 832 833 834 835 835 836 837 837 838 838 838 838 839 839 840 840 840 841 841 842 842 843 843 843 844 843 843 843 843 843 843 843 843 843 843 843 843 843 843 844 844 844 844 844 844 845 845 845 845 845 845 846 846 846 846 847 847 847 847 848 848 848 849 849 849 849 850 849 850 850 850 850 850 851 851 851 852
821 822 824 826 827 829 830 832 833 834 834 836 836 837 838 838 839 839 839 840 840 841 841 841 842 842 842 843 843 844 844 844 844 844 844 844 844 844 844 844 844 844 844 844 844 844 844 845 845 845 845 845 845 845 846 846 846 846 846 847 847 847 848 848 848 849 849 849 849 850 850 850 850 850 851 851 851 851 852 852 852 852 852 853 853
822 823 825 826 828 830 831 833 833 835 835 836 837 838 839 839 840 840 841 841 842 842 842 843 843 843 843 844 844 845 845 845 845 845 845 845 845 845 845 845 845 845 845 845 845 846 845 846 846 846 846 846 846 847 847 847 847 847 847 848 848 848 849 849 850 850 850 850 850 851 851 851 852 852 852 852 853 853 853 853 854 854 854 854 855
822 824 825 827 829 830 832 833 834 835 836 837 838 839 839 840 840 841 841 842 842 843 843 843 844 844 844 845 845 845 845 846 846 845 845 845 845 845 846 846 846 846 846 846 846 847 847 847 847 847 847 847 848 847 848 847 848 848 848 849 849 849 850 850 850 851 851 851 851 852 852 853 853 853 853 854 854 855 855 855 855 855 855 856 856
823 824 826 828 829 831 833 834 835 836 836 837 838 839 840 840 841 842 842 843 843 844 844 844 845 845 845 846 846 846 846 846 846 846 846 846 846 846 847 847 847 847 847 847 847 848 848 848 848 848 848 848 848 848 849 848 849 849 849 850 850 851 851 851 851 851 852 852 853 853 853 854 854 855 855 855 856 856 856 856 857 857 857 857 858
823 825 827 829 830 832 833 834 835 836 837 838 839 840 841 841 842 842 843 844 844 844 845 845 845 846 846 846 846 847 847 847 847 847 847 847 847 847 847 848 848 848 848 848 848 849 849 849 849 849 850 850 850 850 850 850 850 850 850 851 851 852 852 852 852 852 853 853 854 854 855 855 856 856 856 857 857 857 858 858 858 858 859 859 859
823 826 827 829 831 833 833 835 836 836 838 838 840 840 841 842 842 843 844 844 845 845 845 846 846 846 847 847 847 848 848 848 848 848 848 848 848 848 848 848 848 849 849 849 849 849 850 850 850 851 851 851 851 851 851 851 851 851 851 852 852 853 853 853 854 854 854 855 855 856 856 857 857 858 858 858 858 859 859 859 860 860 860 860 860
824 825 828 830 831 833 834 835 836 837 838 839 840 840 842 842 843 844 844 845 845 846 846 847 847 847 847 848 848 848 849 849 849 849 849 849 849 849 849 849 849 850 850 850 850 850 851 851 851 852 852 852 852 852 852 852 852 852 852 853 854 854 854 854 855 855 855 856 856 857 857 858 859 859 859 859 860 860 860 861 861 861 861 861 861
825 826 828 830 831 833 834 836 836 837 838 839 840 841 842 843 844 844 845 845 846 846 847 847 847 848 848 849 849 849 850 849 850 849 849 849 850 850 850 850 850 850 851 851 851 851 852 852 852 852 853 854 854 854 853 854 854 854 854 854 855 855 856 856 856 856 857 857 858 858 859 860 860 861 861 861 861 861 861 862 862 862 862 862 862
826 827 828 830 832 833 834 836 837 838 839 840 841 842 843 843 844 845 845 846 846 847 847 848 848 849 849 850 850 850 850 850 850 850 850 850 850 850 850 851 851 851 852 852 852 852 853 853 853 853 854 854 855 855 855 855 855 855 855 856 856 856 857 857 857 858 858 859 859 860 860 861 862 862 862 862 862 862 863 863 863 863 863 863 863
827 828 829 831 832 834 835 836 837 839 840 841 842 843 843 844 845 845 846 847 847 848 849 849 849 850 850 850 851 851 851 851 851 851 851 851 851 851 851 852 852 852 852 853 853 853 853 854 854 854 855 855 855 856 856 856 856 857 857 857 857 858 858 858 859 859 860 860 860 861 861 862 863 863 863 863 863 863 864 864 864 864 864 864 864
828 829 830 832 832 834 835 836 838 839 840 841 842 843 844 845 845 846 846 847 848 849 850 850 850 851 851 851 852 852 852 852 852 852 852 852 852 852 852 852 853 853 853 853 854 854 854 854 855 855 856 856 856 857 858 858 858 858 858 859 859 859 860 860 860 861 861 861 862 862 863 863 864 864 864 864 864 864 865 865 865 865 865 865 865
829 830 831 832 833 834 835 837 838 839 840 841 843 843 845 845 846 847 847 848 849 850 850 851 851 851 852 852 852 852 853 853 853 853 853 853 853 853 853 853 853 854 854 854 855 855 855 855 856 856 857 857 857 858 859 859 859 859 860 860 860 861 861 861 862 862 863 863 863 863 864 864 865 865 865 865 865 865 865 866 866 866 866 866 866
830 831 832 833 833 835 835 837 838 839 840 841 843 844 845 846 846 847 848 849 849 850 851 851 852 852 852 852 853 853 853 853 853 853 853 854 854 854 854 854 854 854 855 855 855 856 856 856 857 857 858 858 858 859 859 860 860 861 861 861 862 862 862 862 863 863 864 864 864 864 865 865 865 865 865 866 866 866 866 866 867 867 867 867 867
830 831 832 833 834 835 836 837 838 839 841 842 843 844 846 846 847 847 848 849 850 851 851 852 852 852 853 853 853 854 854 854 854 854 854 854 854 854 855 855 855 855 855 856 856 857 857 857 858 858 859 859 859 860 860 861 861 862 862 863 863 863 863 863 864 864 864 865 865 865 865 866 866 866 866 866 867 867 867 867 868 868 868 868 868
830 831 832 833 834 835 836 837 838 840 841 842 844 845 846 846 847 848 848 850 851 851 852 852 852 853 853 853 854 854 855 855 855 855 855 855 855 855 855 855 856 856 856 857 857 858 858 858 859 859 859 860 860 861 861 862 862 863 863 864 864 864 864 864 864 865 865 865 865 866 866 866 866 867 867 867 867 868 868 868 868 869 869 869 869
829 830 832 834 835 835 836 838 839 840 841 842 844 845 846 847 847 848 849 850 851 852 852 852 853 853 853 854 854 855 855 855 856 856 856 856 856 856 856 856 856 857 857 857 858 858 859 859 859 860 860 861 861 861 862 863 863 864 864 865 865 864 864 865 865 865 865 865 866 866 866 867 867 867 868 868 868 868 869 869 869 869 869 870 870
828 830 832 833 834 835 836 838 840 841 842 842 843 845 846 847 847 848 849 849 851 852 852 853 853 854 854 854 855 855 856 856 856 856 856 856 856 857 857 857 857 857 858 858 858 859 859 860 860 860 861 861 862 862 862 863 864 865 865 865 865 865 865 865 865 865 865 866 866 866 866 867 867 868 868 868 869 869 869 870 870 870 870 870 870
828 830 831 833 834 835 837 838 840 841 842 843 843 845 846 847 847 848 849 850 851 851 852 853 854 854 855 855 855 856 856 856 857 857 857 857 857 857 857 857 857 858 858 858 859 859 859 860 860 860 861 861 862 862 863 863 864 865 865 866 865 865 865 865 865 866 866 866 866 867 867 867 868 868 869 869 869 870 870 870 870 870 870 870 870
827 829 830 833 834 835 837 838 840 841 842 843 844 845 846 847 848 848 849 850 850 851 852 853 854 855 855 855 856 856 857 857 857 857 857 857 858 857 858 858 858 858 858 859 859 859 859 860 860 860 861 862 862 863 863 864 864 865 865 866 866 866 866 866 866 866 866 867 867 867 868 868 869 869 869 870 870 870 870 870 870 870 870 870 870
826 829 830 832 834 835 837 838 840 841 842 843 844 845 846 847 848 849 850 850 851 851 852 853 854 855 855 856 856 857 857 858 858 858 858 858 858 858 858 858 858 859 859 859 859 859 860 860 860 861 861 862 862 863 863 864 864 865 865 865 866 866 866 867 867 867 867 867 868 868 868 869 869 869 870 870 870 870 870 870 870 870 870 870 870
825 828 830 831 833 835 836 838 839 841 842 843 844 845 846 847 848 849 850 851 851 851 852 853 854 855 855 856 857 857 858 858 858 858 859 859 859 859 859 859 859 859 859 859 860 860 860 860 861 861 861 862 862 863 864 864 864 864 865 865 866 866 867 867 867 867 867 868 868 868 869 869 869 869 870 870 870 870 870 870 870 870 870 870 870
825 827 829 831 833 835 836 838 839 840 842 843 844 845 846 847 848 848 850 850 851 852 853 853 854 855 855 856 857 857 858 858 859 859 859 859 859 859 859 859 859 860 860 860 860 861 861 861 861 861 862 862 863 864 864 864 864 865 865 865 866 866 867 867 867 867 868 868 868 869 869 869 870 870 870 870 870 871 871 871 871 871 871 870 870
824 826 828 830 832 834 835 837 839 840 841 843 844 845 845 846 847 848 849 850 851 852 853 854 855 855 856 856 857 857 858 858 859 859 859 859 860 860 860 860 860 860 861 861 861 861 861 862 862 862 862 862 863 864 864 864 864 865 865 865 866 866 867 867 867 868 868 869 869 869 869 870 870 870 870 870 871 871 871 871 871 871 871 871 870
823 825 827 829 831 833 835 837 838 839 841 842 843 844 845 846 847 848 849 850 851 852 853 854 855 856 856 856 857 857 858 858 858 859 859 859 860 860 860 861 861 861 861 861 861 862 862 862 862 862 862 862 863 863 864 864 864 865 865 865 866 866 867 867 868 868 868 869 869 869 869 870 870 870 871 871 871 871 871 871 871 871 871 871 871
821 824 826 828 830 832 834 836 837 839 840 841 842 844 845 846 847 848 849 850 851 851 852 854 855 856 856 857 857 857 858 858 858 859 859 860 860 860 860 860 861 861 862 861 862 862 862 862 862 862 862 862 863 863 864 864 864 864 865 865 866 866 867 867 868 868 869 869 869 869 869 870 870 871 871 871 871 871 871 871 871 871 871 871 871
820 823 825 827 830 831 833 835 837 838 839 841 842 843 844 846 847 847 849 850 850 852 852 853 855 856 856 857 857 857 858 858 858 859 859 860 860 860 860 861 861 861 862 862 862 862 862 862 862 863 863 863 863 863 863 863 864 864 865 865 866 866 867 867 868 868 868 869 869 869 870 870 870 871 871 871 871 870 871 871 871 871 871 871 871
819 821 824 826 829 830 833 834 836 837 838 840 841 843 844 845 846 847 849 850 850 852 852 853 854 855 856 856 857 857 858 858 859 859 859 860 860 860 861 861 861 862 862 862 862 862 862 862 862 863 863 863 863 863 864 864 864 864 865 865 866 866 867 867 868 868 869 869 869 869 870 870 870 871 870 870 870 870 871 871 871 871 871 871 871
817 820 822 825 828 829 832 833 835 836 837 839 840 842 843 845 846 847 848 849 850 852 852 853 854 855 855 856 857 857 858 858 859 859 859 860 860 860 861 861 862 862 862 862 862 862 862 863 863 863 863 863 864 864 864 864 864 865 865 865 866 867 867 867 868 868 869 869 869 870 870 870 870 870 870 870 870 871 871 871 871 870 871 871 871
815 818 820 823 826 828 830 832 834 835 836 838 840 841 843 844 846 847 848 849 850 852 852 853 854 854 855 856 857 857 858 858 858 859 860 860 860 861 861 861 862 862 862 862 862 862 862 863 863 863 863 863 864 864 864 864 865 865 865 866 866 866 867 867 868 868 869 869 869 870 870 870 870 870 870 870 870 870 871 870 870 870 871 871 871
813 816 818 821 824 826 829 831 833 835 836 837 839 840 842 844 845 847 848 849 850 851 852 853 854 854 855 856 857 857 858 858 859 859 860 860 860 861 861 861 862 862 862 862 862 863 862 863 863 863 863 864 864 864 864 865 865 865 866 866 866 867 867 867 868 868 869 869 869 870 869 869 870 870 870 870 870 870 870 870 870 870 870 870 870
812 814 817 820 822 825 827 829 832 833 835 837 838 840 841 843 845 846 848 849 850 851 852 852 853 854 854 855 856 857 858 858 859 859 860 860 860 861 861 861 861 862 862 862 862 862 862 862 863 863 863 864 864 864 864 865 865 866 866 866 867 867 867 868 868 868 868 869 869 869 869 869 869 870 870 870 870 870 870 870 870 870 870 869 869
810 813 815 818 820 823 826 828 830 832 834 836 837 839 841 842 843 845 846 848 849 850 851 852 852 853 854 855 856 856 857 858 858 859 859 860 860 861 861 861 861 861 862 862 862 862 862 863 863 863 864 864 864 864 864 864 865 866 866 867 867 868 868 868 868 868 868 868 869 869 869 869 869 869 869 869 870 870 870 870 869 869 869 868 868
808 811 813 816 818 821 824 826 828 831 833 834 836 837 838 840 841 843 844 846 848 849 850 851 852 852 853 854 855 856 857 858 858 859 859 859 860 860 861 861 861 862 862 862 862 863 863 863 863 864 864 864 864 864 864 864 865 866 867 867 867 868 868 868 868 868 868 868 868 868 869 869 869 869 869 869 869 869 869 869 869 868 868 868 867
806 808 811 814 817 819 822 824 827 829 831 832 834 835 837 838 840 841 843 845 847 848 849 850 851 852 853 854 855 855 856 857 858 858 859 859 860 860 861 861 861 861 862 862 862 863 863 863 863 864 864 864 864 864 865 865 865 866 866 867 868 868 868 868 868 868 867 868 868 868 868 868 868 868 868 869 869 869 869 868 868 868 867 867 867
803 807 809 812 815 818 820 822 825 827 829 831 832 834 836 837 839 841 842 844 846 847 848 849 850 851 852 853 854 855 856 857 858 858 859 859 859 860 860 861 861 861 862 862 862 863 863 863 863 864 864 864 864 864 865 865 866 866 867 869 870 870 870 868 867 868 867 867 867 867 868 867 867 867 868 868 868 868 868 868 868 867 867 867 866
802 804 807 809 812 815 818 820 822 825 827 830 832 833 835 837 839 841 842 844 845 846 847 849 849 850 851 852 853 854 855 856 857 858 858 859 859 860 860 861 861 861 862 862 862 862 863 863 863 864 864 864 864 864 865 865 865 866 868 870 870 872 874 870 867 867 867 867 867 867 867 867 866 867 867 867 867 867 867 867 867 867 866 866 866
799 801 803 806 809 812 815 818 820 823 825 828 830 832 834 837 838 840 842 843 844 845 846 847 848 849 850 851 853 854 855 855 856 857 858 858 859 859 860 860 861 861 862 862 862 863 863 863 863 864 864 864 864 865 865 865 866 866 867 869 871 874 873 869 867 868 866 866 867 867 867 866 866 866 866 866 866 866 867 867 866 866 866 866 865
796 798 801 803 807 810 814 817 819 821 824 826 829 831 833 835 836 837 839 840 841 842 843 844 845 847 849 850 852 853 854 855 855 856 857 858 859 859 860 860 861 861 862 862 863 863 863 863 863 864 864 864 865 865 865 865 866 866 866 867 868 870 868 867 869 869 867 866 866 866 866 866 866 866 866 866 866 866 866 866 866 865 865 865 864
793 796 799 801 804 808 812 815 817 819 822 825 827 829 831 833 834 835 836 837 838 840 841 843 844 846 847 849 850 852 853 854 855 856 857 857 858 859 859 860 861 861 862 862 862 863 863 863 863 864 864 864 864 864 865 865 865 866 866 866 866 866 865 866 868 869 869 867 865 865 865 865 865 865 865 865 865 865 865 865 865 865 864 864 863
791 795 797 799 802 805 809 812 815 817 820 823 825 827 829 831 833 834 835 836 837 839 840 842 843 845 846 848 849 850 852 853 854 855 856 857 857 858 859 860 860 861 861 862 862 863 863 863 863 863 864 864 864 864 864 865 865 865 865 866 866 865 865 865 865 866 869 869 866 865 864 864 864 864 864 865 864 864 864 864 864 863 863 862 862
789 792 795 797 800 803 807 810 813 816 818 821 823 825 827 829 831 833 834 835 837 838 840 841 843 844 845 846 847 849 850 852 853 854 855 856 856 857 858 859 860 860 861 861 862 862 862 862 862 863 863 863 864 864 864 864 865 865 865 865 865 865 865 865 865 865 866 868 868 865 864 863 863 863 863 863 864 863 863 863 863 862 861 861 861
786 790 793 795 798 801 805 808 810 813 816 818 821 823 826 827 829 831 832 834 836 837 839 840 842 843 844 845 846 847 849 850 852 853 854 855 856 857 857 858 859 859 860 860 861 861 861 862 862 862 863 863 863 864 864 864 864 865 865 865 865 865 865 865 865 865 865 866 867 865 864 863 862 862 862 862 862 862 862 862 861 861 860 860 860
784 788 791 793 796 798 802 805 808 811 813 816 818 821 823 825 827 829 830 832 834 836 837 839 840 841 842 844 845 846 847 849 850 851 853 854 855 856 856 857 858 859 859 859 860 860 861 861 861 861 862 862 863 863 864 864 864 864 864 864 864 864 864 864 864 864 864 864 865 864 863 863 862 862 861 861 861 861 861 861 860 860 859 859 858
Wind_Speed
19 20 20 23 24 23 23 22 21 21 21 22 23 23 22 22 22 21 20 19 20 20 20 20 20 20 20 20 19 19 18 18 18 17 16 15 15 14 14 14 14 14 14 14 14 14 14 14 14 14 14 14 13 13 14 15 15 16 16 16 17 17 17 17 17 16 16 16 16 15 15 16 16 15 15 17 17 17 17 18 18 18 18 18 19
19 20 23 26 24 22 21 21 21 21 21 21 21 22 22 22 21 20 20 19 20 20 20 20 19 19 19 19 19 18 17 17 17 16 15 15 14 14 14 14 14 14 14 14 15 15 15 15 14 14 14 14 13 13 14 14 15 16 16 17 17 18 17 17 17 16 16 16 16 15 15 16 16 16 16 17 17 17 17 18 18 18 18 18 18
20 20 23 24 23 23 22 21 22 21 21 20 20 20 21 20 20 20 19 19 19 19 19 19 19 19 19 18 18 17 17 16 16 15 15 14 14 15 14 15 15 15 15 15 15 15 15 15 14 14 15 14 14 14 14 14 15 16 16 17 17 17 17 17 16 16 16 15 15 15 15 16 16 17 18 18 18 17 17 17 18 18 17 17 17
21 21 21 22 23 23 23 22 22 22 21 20 20 19 19 18 19 19 18 18 18 18 19 19 19 19 18 18 18 17 16 15 15 15 14 14 14 15 15 15 15 15 15 15 15 15 15 15 14 15 15 14 14 14 14 15 15 15 16 16 16 17 17 16 16 16 15 15 16 17 17 17 18 18 18 18 17 17 16 16 17 17 16 16 16
24 22 20 22 22 22 23 23 23 22 21 21 20 20 19 18 19 18 18 18 18 18 19 19 18 18 18 17 17 16 15 15 15 14 14 14 14 14 15 16 16 15 15 15 16 15 15 14 15 15 15 14 14 14 14 15 15 15 14 14 16 16 16 16 15 16 16 17 18 19 19 19 18 17 18 18 17 17 16 17 17 17 17 17 17
26 24 22 23 23 22 22 23 22 22 22 22 21 20 20 19 19 19 18 18 18 18 18 17 17 17 17 16 16 15 15 14 14 14 14 14 14 14 15 16 15 15 15 15 15 15 15 15 15 15 15 15 14 14 14 15 16 16 15 14 14 15 16 16 15 16 17 19 20 20 20 19 17 17 17 17 17 17 17 17 17 17 17 17 17
26 26 25 26 25 23 22 22 22 22 23 23 22 21 20 21 20 19 19 19 19 18 17 16 16 16 16 16 15 15 14 14 14 14 14 14 14 14 14 15 15 15 15 15 15 15 15 15 15 15 15 15 15 15 14 13 14 15 15 15 14 14 16 17 16 17 19 20 20 20 20 18 17 16 17 17 17 17 17 17 17 17 17 17 17
27 28 27 27 25 23 23 22 23 23 23 22 21 21 21 21 20 19 20 19 18 17 16 16 15 16 16 16 15 15 14 13 14 14 14 14 14 14 15 15 14 14 14 14 14 15 15 15 15 15 15 15 14 14 13 12 13 14 14 14 14 16 17 17 18 19 20 20 20 20 19 17 16 16 17 17 18 18 17 17 17 17 17 17 17
27 28 29 27 25 24 23 22 22 22 22 21 20 20 21 21 20 20 19 19 18 17 16 15 15 15 15 15 15 15 14 14 14 14 14 14 14 15 15 15 14 14 14 14 14 14 15 15 15 15 14 14 13 13 12 12 12 14 15 15 15 17 18 18 19 20 21 21 20 20 19 17 17 18 18 18 18 18 17 17 17 17 17 17 17
28 28 29 27 25 23 22 21 20 21 21 21 20 20 20 20 20 19 19 18 17 17 16 15 15 15 16 15 15 15 14 14 13 14 14 14 15 15 15 14 14 14 14 14 13 14 15 15 14 14 14 13 13 12 12 12 12 14 16 16 16 18 18 18 20 22 21 21 20 18 17 17 18 18 18 18 18 17 16 16 16 16 16 16 16
27 28 28 26 25 23 22 20 19 21 21 21 20 20 20 19 19 19 18 17 17 16 15 15 15 15 16 15 15 15 14 14 13 14 14 14 14 14 14 14 14 14 14 14 13 14 14 14 14 14 13 13 12 12 12 12 13 14 16 17 17 18 18 19 21 21 20 19 18 16 16 16 17 18 18 17 17 16 16 16 15 15 15 15 15
28 29 27 26 25 23 21 20 20 21 20 20 19 19 19 18 19 18 17 17 17 16 15 15 15 15 15 15 14 14 15 14 13 13 14 14 14 14 14 13 13 13 14 14 13 13 13 13 13 13 13 13 12 12 13 13 14 14 15 16 18 19 19 20 20 20 18 17 17 17 17 17 18 18 17 17 16 16 16 15 15 15 15 15 15
29 29 27 25 24 22 21 20 20 20 20 20 18 18 18 18 18 17 17 16 16 15 15 15 15 15 14 14 14 14 14 14 13 13 13 13 13 13 13 13 13 13 13 13 13 13 13 13 13 13 13 13 12 12 13 13 13 14 15 16 18 18 19 19 19 19 18 17 18 19 19 19 18 17 16 16 16 16 15 15 15 15 15 15 15
31 29 27 25 24 22 21 21 20 20 21 19 18 18 17 17 17 17 16 16 16 15 14 14 14 14 14 14 14 14 14 13 13 13 13 13 13 13 12 13 13 13 13 13 13 13 13 13 13 13 13 13 12 13 14 14 13 14 15 16 17 17 18 18 18 18 17 17 18 18 19 18 17 16 16 16 16 16 16 15 15 15 15 15 15
31 29 27 25 24 22 21 21 20 20 20 18 17 17 17 17 16 16 15 15 15 15 14 14 14 14 14 14 14 13 13 13 13 13 13 13 13 12 12 12 13 13 13 13 13 13 14 13 13 13 13 12 12 12 13 14 14 14 15 15 15 15 17 18 18 17 17 17 18 18 18 17 16 15 15 15 15 16 15 15 15 15 14 14 14
31 29 27 26 24 22 21 20 20 19 18 17 17 17 17 17 16 15 15 15 15 15 14 14 14 14 14 14 14 13 13 13 13 13 13 13 12 11 11 11 13 14 14 13 13 13 14 13 14 14 13 12 12 12 12 13 13 13 14 14 14 14 15 16 17 17 17 17 18 18 17 16 15 14 14 14 15 15 15 14 14 14 13 13 13
30 29 28 26 24 23 21 20 20 18 17 17 17 17 17 17 16 15 15 15 15 14 14 14 15 14 14 14 14 13 13 13 13 13 12 12 12 11 11 11 13 15 14 13 13 13 13 13 13 14 14 13 12 12 12 12 13 13 13 13 14 14 14 15 16 16 16 16 17 17 16 15 14 13 13 13 14 14 14 13 13 13 12 12 12
29 28 28 26 25 23 22 21 20 19 18 17 17 16 17 17 16 15 15 15 15 14 14 14 15 14 14 14 14 13 13 13 13 12 12 12 11 11 11 11 13 15 14 14 13 13 14 13 14 15 15 13 12 12 13 13 13 13 13 13 14 14 14 14 15 15 15 16 16 16 15 14 13 13 12 12 12 13 13 12 12 11 11 11 11
28 28 27 26 25 24 23 21 20 20 20 19 18 17 17 16 16 16 15 15 15 15 15 14 15 14 14 14 13 13 13 13 13 13 12 12 11 11 11 11 13 15 15 14 14 13 14 14 15 15 14 13 13 13 13 13 13 13 13 13 13 13 13 14 14 14 14 15 15 16 15 13 13 12 12 11 11 12 11 11 10 10 10 9 9
26 26 26 26 25 24 23 21 21 21 21 20 19 18 17 16 16 16 15 16 16 15 15 14 14 14 14 13 13 13 13 12 13 13 12 12 12 12 12 12 13 15 15 15 15 14 14 14 15 14 13 14 14 13 12 12 13 13 13 13 12 12 12 12 12 12 12 13 13 14 14 13 12 11 11 10 10 10 10 10 9 9 8 8 8
23 25 25 25 24 24 23 22 22 22 22 21 20 18 17 16 16 16 16 16 16 16 15 15 14 14 14 14 14 13 13 12 13 13 12 12 13 13 13 13 14 14 15 16 15 14 13 14 15 14 14 15 15 14 13 12 12 12 12 11 10 10 9 9 10 11 12 12 12 13 13 12 11 11 10 10 10 9 9 9 8 8 7 7 7
23 23 23 24 24 24 24 24 23 23 23 21 20 19 18 17 17 17 16 16 16 16 15 15 15 14 14 14 14 14 13 13 13 13 13 13 13 13 13 13 14 15 15 16 16 15 13 14 15 14 14 14 14 14 13 11 11 12 11 9 8 7 6 6 8 11 12 12 11 12 12 11 11 10 10 10 9 9 8 8 7 7 6 6 6
23 23 23 23 24 25 25 24 24 24 23 22 21 19 19 19 19 18 17 17 16 16 16 16 15 15 15 15 14 14 13 13 12 13 13 13 13 13 13 13 14 15 16 16 15 15 14 14 14 14 14 13 13 12 11 10 9 11 11 10 8 5 4 4 7 11 12 12 11 11 11 11 11 10 9 9 9 8 7 7 6 6 6 6 5
25 24 24 24 25 26 25 25 25 25 24 23 22 21 20 20 20 19 18 17 17 17 17 17 16 15 15 15 14 14 13 12 11 11 12 13 13 13 13 13 14 14 15 15 15 14 13 13 13 13 13 12 12 11 10 9 8 9 11 12 9 7 4 4 7 11 12 12 12 12 12 11 10 10 9 9 8 8 7 6 5 5 5 5 5
25 25 25 25 26 26 26 26 25 26 25 24 24 22 22 21 21 20 19 18 18 18 18 17 16 15 15 15 14 14 13 11 11 11 13 13 13 13 13 13 13 13 13 14 13 12 12 11 12 12 11 11 11 10 10 8 7 7 10 11 9 7 5 5 8 10 11 12 12 12 12 11 11 10 9 8 8 7 6 6 5 5 4 4 4
26 25 26 27 27 27 27 26 26 26 25 25 24 23 23 22 22 21 20 19 18 18 17 17 16 15 14 15 15 14 12 11 11 12 13 13 13 13 13 13 13 12 12 11 11 11 10 10 10 10 10 9 9 9 9 8 8 7 9 12 10 8 6 6 8 10 11 11 11 12 11 10 10 10 9 8 7 6 6 6 5 5 4 4 4
27 26 27 28 28 28 27 25 26 26 25 25 24 24 23 22 22 21 20 20 18 18 17 17 16 16 15 15 15 14 14 12 12 13 13 13 12 12 12 12 12 10 9 9 9 9 10 9 9 9 9 9 9 9 9 9 8 7 7 12 12 9 7 6 8 9 9 10 10 10 10 9 9 9 9 8 7 7 6 6 5 5 5 4 4
27 27 28 28 28 28 27 26 26 26 25 25 24 24 23 22 21 20 20 20 18 18 17 17 16 16 15 15 14 14 15 14 13 13 12 12 11 11 11 10 10 10 9 8 8 8 8 8 8 8 8 8 8 9 9 8 8 7 8 12 14 11 8 7 8 8 8 9 9 9 8 8 8 8 8 8 7 7 7 6 6 5 5 5 5
28 28 28 28 28 28 27 26 26 25 25 25 24 23 23 22 21 21 20 19 19 18 18 17 16 15 15 14 14 14 14 14 13 12 11 11 11 10 9 9 9 9 10 9 8 8 8 8 8 7 6 6 8 8 7 7 8 9 10 13 15 12 9 7 8 8 8 7 7 7 7 7 7 7 7 7 6 6 6 6 6 6 5 5 6
29 28 28 28 28 28 28 27 26 23 24 26 25 24 23 22 21 21 20 20 19 18 18 17 16 15 15 14 13 13 13 13 13 12 11 11 11 10 10 9 9 9 9 8 8 8 8 7 7 6 5 6 6 6 6 8 10 10 11 13 14 12 9 8 7 7 8 7 7 7 7 6 6 7 6 6 6 6 6 6 6 6 6 6 6
29 28 29 28 28 29 28 27 26 23 24 26 26 24 24 23 22 21 20 20 19 18 18 17 16 16 15 14 13 12 11 12 12 12 12 11 11 11 10 10 10 10 9 8 8 8 7 7 6 5 5 6 5 5 6 8 11 12 12 12 12 11 8 8 7 7 7 7 7 7 7 7 6 6 6 6 6 6 6 6 6 6 6 6 6
31 30 30 29 28 29 28 27 27 25 25 26 27 25 24 23 22 21 20 20 18 18 17 16 16 16 16 15 13 12 11 11 11 12 12 11 11 11 10 10 10 9 8 8 8 8 8 7 5 4 4 5 4 4 4 7 12 14 13 12 11 10 8 8 7 6 7 7 7 7 7 7 7 6 6 5 5 5 6 6 6 6 6 6 6
31 31 30 30 29 29 29 28 27 26 26 26 27 26 24 23 22 22 20 19 18 17 17 16 16 16 16 15 13 13 12 10 11 11 11 10 9 10 10 10 10 9 7 7 7 7 7 7 6 5 5 5 5 6 3 4 12 14 13 12 10 9 8 8 7 6 6 6 7 7 7 7 7 7 6 6 5 5 6 6 6 6 6 6 6
31 31 31 30 29 29 29 29 28 27 27 26 26 26 25 24 23 22 20 19 19 18 17 17 16 15 15 14 14 14 12 11 11 11 11 9 9 9 9 9 9 8 8 7 6 6 7 8 7 6 7 6 6 7 3 3 11 14 12 12 10 9 8 8 7 6 5 5 6 7 7 7 6 6 6 6 7 7 7 7 7 7 7 7 7
31 32 32 31 30 29 29 30 28 28 28 26 25 25 25 24 24 22 20 20 19 19 19 18 16 15 14 14 14 15 14 13 13 12 11 10 8 9 10 9 8 7 7 6 5 5 6 7 7 7 7 7 6 5 3 5 10 13 12 11 10 8 8 8 7 6 6 5 5 6 6 7 6 6 6 6 6 7 7 8 8 8 8 8 8
33 33 33 33 30 29 29 30 29 29 27 25 24 25 25 25 24 22 21 20 19 20 20 18 17 16 15 15 15 15 14 14 14 12 11 10 9 9 10 9 7 6 6 6 6 5 6 7 7 7 7 7 6 4 4 7 9 12 11 11 11 9 9 10 8 7 7 6 5 5 6 6 6 6 5 5 5 6 6 8 8 9 9 9 9
35 34 34 34 32 30 30 30 31 30 27 25 24 25 26 24 24 23 22 20 20 21 20 19 20 19 17 17 16 16 15 14 13 12 11 10 9 9 9 9 7 7 8 8 8 7 7 8 7 7 7 7 7 6 7 8 9 11 9 9 10 9 9 10 9 8 8 8 6 5 5 6 6 6 5 4 5 5 6 7 8 9 9 10 10
36 35 35 35 33 32 31 30 31 31 28 26 25 26 25 24 24 24 22 21 20 21 22 23 23 20 19 18 18 17 16 14 14 13 11 10 10 10 9 9 8 8 9 10 10 9 8 8 7 7 7 8 7 7 8 8 8 10 9 8 9 7 6 8 9 9 9 9 7 5 5 6 6 6 5 5 5 5 6 7 8 8 9 10 10
36 35 36 35 33 33 32 30 30 31 28 25 26 27 25 24 24 24 22 20 20 22 24 25 22 20 19 19 18 17 17 15 15 14 12 11 11 11 10 9 8 8 9 11 10 9 8 8 7 7 8 7 6 7 8 7 6 8 8 8 6 6 7 8 8 9 10 9 8 6 6 7 6 6 6 5 5 6 6 6 7 8 8 9 9
37 36 36 34 33 34 33 31 31 32 29 26 27 27 27 25 24 24 23 21 22 24 24 22 20 19 20 19 18 17 17 17 15 14 13 12 11 10 9 8 8 8 10 10 10 9 8 8 8 8 7 5 4 7 8 9 10 9 9 7 6 5 6 8 7 7 8 10 9 9 9 8 7 8 7 6 6 6 6 6 6 7 7 7 7
37 37 37 35 35 35 33 33 34 32 30 29 29 29 29 28 26 26 24 22 24 26 23 20 18 18 18 19 18 17 18 18 16 14 13 12 11 10 9 9 8 8 8 9 9 10 9 9 8 7 6 5 7 10 10 12 13 11 8 7 6 5 5 7 7 7 9 11 11 11 11 10 10 9 9 8 8 7 7 6 6 6 7 7 7
37 38 37 36 36 36 35 35 35 32 32 32 31 30 29 30 28 27 26 22 25 27 24 21 19 18 17 17 19 18 19 19 17 15 13 12 11 11 10 10 9 8 8 9 9 9 9 9 8 6 5 6 8 12 13 11 12 10 8 5 3 4 6 7 8 9 10 11 13 14 14 13 13 11 11 11 10 9 9 8 8 7 7 7 7
38 37 38 37 36 36 36 37 35 34 34 33 33 31 29 31 28 28 28 23 25 26 22 21 21 20 18 17 18 19 19 19 18 16 13 12 11 11 11 10 9 9 9 10 10 9 9 9 8 6 5 5 6 9 10 7 8 10 7 3 1 2 4 6 9 11 11 12 14 15 15 15 15 12 12 13 13 11 10 10 10 9 8 8 8
37 36 37 38 37 37 38 38 37 36 35 34 34 31 28 29 27 28 28 23 23 23 21 23 24 23 21 18 19 19 19 19 18 16 14 13 12 11 12 10 9 9 9 10 10 10 10 10 9 7 6 6 6 7 7 5 7 9 5 2 1 2 1 5 8 11 12 12 14 15 15 15 15 15 14 14 14 13 11 11 11 11 11 9 9
36 36 38 39 38 38 39 39 38 37 36 35 34 32 29 28 26 28 27 22 20 19 21 26 26 26 23 20 19 19 19 18 17 16 14 13 12 10 10 10 9 9 9 9 10 10 10 9 8 7 7 6 6 7 7 5 7 9 5 2 2 1 2 3 3 7 10 10 11 14 16 15 15 16 16 14 14 14 13 12 12 12 12 11 10
36 37 39 40 39 39 39 39 39 38 37 37 35 33 31 30 29 30 27 23 19 19 24 28 28 27 24 21 20 20 19 18 17 16 15 13 12 10 9 9 9 9 9 9 9 10 10 9 8 7 7 6 6 6 6 7 7 8 7 4 2 2 4 3 1 2 6 8 8 11 15 16 16 17 17 16 14 14 14 14 13 13 13 12 12
36 38 38 39 39 40 40 40 40 38 38 38 37 34 32 31 31 32 30 27 23 21 26 29 29 27 24 21 21 20 19 18 18 17 15 13 12 10 9 9 9 9 9 8 9 10 10 9 8 7 6 7 8 6 6 8 7 6 7 6 3 3 5 5 3 1 2 5 8 10 13 16 18 19 19 18 16 15 15 15 15 14 14 14 13
36 37 37 38 40 42 42 41 40 39 39 39 38 36 34 33 32 32 31 30 27 23 25 28 28 26 24 22 21 20 19 18 18 17 16 14 12 11 10 9 9 9 9 9 9 10 9 8 8 7 6 7 8 7 6 8 7 4 5 5 4 4 6 5 4 3 2 1 5 7 9 12 17 20 19 19 18 17 16 17 16 15 15 15 15
37 37 38 39 41 42 42 41 40 40 40 40 40 38 36 34 32 32 31 31 29 24 24 27 27 26 25 23 22 21 20 19 18 17 16 16 14 13 12 11 10 10 10 9 9 10 9 9 9 9 8 8 9 8 7 8 6 2 3 4 3 4 5 4 4 5 3 1 2 4 5 7 13 19 21 21 21 20 18 17 17 17 16 16 16
38 38 38 38 40 41 42 41 40 40 40 41 41 39 37 35 33 32 31 31 30 24 23 27 28 27 26 24 23 23 22 20 19 17 17 17 16 15 14 14 13 11 11 10 10 11 10 9 9 9 8 8 9 9 7 7 5 2 3 5 6 5 4 3 5 7 4 3 3 4 5 4 6 13 18 20 20 20 19 18 18 18 18 16 16
37 37 37 38 40 41 42 41 40 40 40 41 42 40 39 37 35 34 33 33 32 27 26 28 29 28 27 26 25 24 23 22 22 20 18 18 18 16 15 15 15 13 12 11 12 12 11 10 10 9 9 8 10 10 8 7 6 4 4 6 7 7 6 5 7 7 7 5 3 4 5 3 2 5 7 11 16 17 17 16 16 17 17 16 15
Wind_Direction
138 135 138 136 126 124 120 119 119 121 121 120 122 122 122 122 123 124 125 124 124 121 117 115 114 113 110 107 104 102 102 101 99 97 96 96 97 99 102 104 105 103 103 104 106 110 111 112 114 113 110 110 109 109 110 109 107 105 104 104 104 105 106 105 104 103 103 99 98 100 104 104 101 99 100 102 102 104 106 108 108 107 109 112 111
140 138 139 134 130 129 125 124 124 123 121 122 122 121 122 123 127 129 128 125 123 120 118 117 116 114 110 107 104 101 100 98 97 97 97 98 100 102 104 106 108 108 106 105 106 108 110 110 111 110 107 106 105 105 107 106 105 105 105 106 106 106 106 105 104 104 102 100 99 99 101 102 101 100 100 102 103 105 107 108 108 107 110 113 112
139 139 136 135 135 133 130 129 126 125 124 124 122 122 123 127 131 130 126 123 122 120 118 118 117 114 110 107 103 101 100 99 99 99 100 102 104 106 107 108 109 110 109 107 106 107 107 107 107 106 105 103 103 104 105 106 107 109 109 109 108 108 107 106 106 104 102 102 104 103 101 100 101 103 104 105 105 106 107 107 106 106 108 110 110
141 138 135 136 138 134 132 131 129 128 127 126 125 124 126 131 131 127 123 121 120 119 118 118 116 115 112 110 107 105 103 103 103 102 103 104 107 108 109 109 109 109 108 108 107 106 105 105 104 102 102 102 103 103 105 108 109 111 112 114 114 113 111 108 107 106 106 109 108 105 103 103 104 106 107 106 106 106 106 106 105 106 108 109 109
144 140 138 138 139 136 133 132 130 129 130 128 128 128 131 133 129 124 122 121 120 120 119 118 117 116 116 114 112 110 109 108 107 106 106 107 109 110 110 109 109 109 108 109 108 106 105 104 103 101 102 103 102 102 105 109 111 111 111 114 118 117 112 110 108 109 111 112 110 106 104 104 106 106 106 106 106 106 106 107 107 107 108 109 109
146 142 140 140 139 137 133 132 130 131 131 131 132 132 135 134 129 126 124 123 123 122 121 120 118 118 120 118 116 115 113 113 111 110 109 109 111 112 113 111 111 110 109 109 108 106 105 103 101 101 102 102 102 102 104 107 110 113 112 112 117 115 112 113 112 112 114 114 111 108 105 104 104 104 105 105 105 106 106 107 107 108 109 109 109
146 143 141 140 139 136 133 132 131 132 132 133 135 136 138 134 130 129 128 128 127 125 124 123 120 120 123 123 121 118 116 116 114 112 112 112 113 114 115 113 113 112 111 109 107 106 105 104 103 102 102 102 102 103 103 105 108 112 114 113 115 115 115 118 117 117 116 114 112 109 107 105 104 104 105 106 105 105 105 106 107 107 109 109 109
146 144 141 141 139 137 136 134 134 134 134 135 137 138 137 134 132 132 131 131 130 129 128 126 122 122 124 126 125 122 119 118 117 115 114 115 115 116 115 115 114 113 112 109 108 107 106 105 103 102 102 103 104 104 103 105 108 110 114 114 116 118 119 120 120 120 117 114 113 112 110 107 107 107 106 105 105 104 103 104 104 105 106 107 108
146 145 143 142 140 139 138 138 137 136 137 138 139 139 138 136 135 134 133 133 133 132 131 128 125 125 124 126 127 125 123 120 119 117 115 115 115 116 116 116 116 115 112 109 108 107 106 105 103 101 101 103 104 104 104 105 109 112 113 115 118 120 121 120 121 120 117 115 114 111 110 109 108 106 105 104 103 102 102 102 103 103 104 105 108
146 146 145 143 142 141 140 140 139 140 140 141 142 141 140 138 136 135 135 135 135 134 133 132 129 128 127 128 128 127 125 121 121 119 117 115 116 117 116 117 118 116 112 110 109 108 106 105 104 103 103 102 100 102 105 105 109 114 115 116 119 123 125 123 121 120 117 116 112 109 109 110 108 106 105 103 101 102 102 102 102 104 105 106 107
147 148 147 145 144 143 143 144 143 143 142 144 144 142 141 139 138 137 137 138 137 136 136 136 132 130 129 130 130 129 127 124 122 121 118 116 116 116 115 116 116 114 112 112 110 109 108 106 106 106 105 101 99 101 105 107 111 116 118 120 122 125 127 125 123 122 120 117 111 110 113 113 110 108 106 104 103 104 104 104 105 107 108 109 109
149 149 148 147 145 147 148 148 146 145 145 146 145 144 144 142 141 140 140 140 139 139 139 137 133 131 131 130 131 130 128 126 124 122 121 118 117 116 115 116 115 115 114 114 112 111 110 108 108 109 107 103 101 102 105 108 111 114 117 120 124 127 127 127 126 126 123 117 112 112 113 113 111 109 108 107 107 108 108 108 109 110 111 112 111
149 149 149 147 148 151 151 149 148 147 149 148 146 146 146 145 144 142 143 142 141 141 140 137 134 134 132 131 132 130 128 127 126 124 123 121 120 117 117 118 118 118 118 116 115 114 113 111 111 111 109 105 102 102 105 108 109 111 114 120 125 129 130 129 128 127 124 119 116 114 113 111 109 110 111 112 112 111 111 110 112 113 114 114 112
150 149 149 149 150 153 153 152 151 151 152 150 149 149 147 147 145 144 144 143 142 140 139 137 135 134 133 131 129 128 128 128 128 126 125 123 120 118 119 121 121 121 121 119 118 117 117 117 115 114 111 106 103 103 105 107 108 111 115 120 124 129 131 130 128 127 125 122 119 117 115 112 111 113 115 115 114 113 112 112 114 115 115 114 113
151 149 149 151 151 154 154 153 153 155 155 152 151 151 149 149 147 146 145 144 142 140 140 138 136 135 132 129 128 129 130 129 128 127 125 123 120 119 121 123 126 124 122 121 120 120 122 122 120 117 114 109 105 106 106 106 107 110 114 118 123 129 132 129 129 128 126 124 121 119 116 113 115 116 117 117 116 114 114 114 115 115 114 113 112
151 150 150 151 151 154 154 154 156 156 157 156 154 153 151 150 149 149 146 144 143 142 140 138 136 133 132 130 130 132 132 131 130 128 126 123 121 121 121 123 126 124 122 122 122 121 124 126 124 121 117 112 109 108 108 110 109 108 111 116 122 129 132 130 130 130 128 126 124 121 119 117 118 118 119 119 118 117 115 116 116 115 114 113 113
152 152 151 151 152 154 155 156 158 159 160 158 156 154 153 152 151 150 148 146 144 142 140 139 136 134 134 133 133 134 134 133 131 129 127 125 123 121 122 125 127 124 123 123 122 122 125 129 129 125 120 115 112 109 108 110 109 109 112 116 121 127 131 130 130 130 129 128 126 123 121 121 121 121 121 121 120 119 118 118 118 116 115 114 114
154 154 152 152 154 156 158 159 161 162 160 157 158 157 156 154 153 152 150 147 144 141 141 140 137 136 135 134 135 135 134 133 131 129 128 128 125 123 122 124 127 126 125 125 123 123 125 128 129 126 120 116 115 111 108 108 108 112 114 115 119 126 130 131 130 131 131 130 128 125 124 124 124 124 123 123 123 122 122 121 120 118 116 116 114
155 155 154 155 157 159 161 162 164 162 158 158 160 159 157 156 155 154 153 148 145 143 142 141 140 138 136 136 136 135 133 131 130 129 129 129 127 125 122 121 124 126 128 128 125 125 126 128 129 126 121 121 121 114 109 108 108 110 112 115 120 125 131 133 132 133 133 133 131 129 126 128 129 129 127 126 126 125 125 125 122 120 117 117 114
154 156 156 158 160 162 163 164 163 160 158 159 160 160 159 159 157 156 154 150 147 145 144 143 142 139 137 138 138 136 134 133 131 130 129 128 128 126 121 120 121 125 129 129 126 127 128 129 130 128 125 127 125 117 110 108 111 110 111 117 121 128 134 137 135 134 135 135 135 133 130 132 133 132 132 130 129 129 131 129 125 122 120 120 117
156 158 159 160 162 164 164 163 162 160 160 160 161 161 160 160 158 157 156 152 149 147 145 142 141 139 140 142 142 141 138 137 135 131 128 125 126 125 123 122 121 125 129 129 127 126 127 129 130 129 129 131 127 120 115 112 116 116 114 116 118 125 134 137 139 142 143 142 142 138 134 136 138 138 138 135 134 135 135 131 127 127 125 120 116
157 159 161 163 165 166 165 164 164 163 163 162 162 161 161 161 158 159 158 154 151 149 146 144 144 145 146 145 143 142 141 140 137 133 128 123 124 124 125 124 122 123 126 127 126 125 126 127 128 129 131 132 128 124 119 117 122 124 124 125 125 126 127 130 143 151 152 151 150 145 140 143 144 143 143 140 141 140 137 134 132 131 126 120 117
160 162 164 168 170 167 167 167 166 166 165 163 162 162 162 161 160 161 159 156 156 152 150 149 150 151 149 146 143 141 140 139 135 132 128 124 124 124 126 125 122 121 121 122 122 123 124 124 126 129 134 135 134 132 126 123 125 128 134 141 148 154 142 134 150 156 158 158 158 153 149 149 149 148 149 148 147 143 141 139 138 135 129 124 120
165 165 167 172 173 170 170 169 168 168 167 164 164 164 163 162 162 162 161 161 160 156 155 153 153 155 150 146 144 141 139 136 135 135 132 131 129 127 129 127 125 124 124 124 125 127 127 125 126 130 135 138 142 141 137 134 131 136 142 147 160 180 176 161 163 162 162 165 166 163 159 158 156 155 154 154 153 149 148 146 141 137 133 130 127
166 166 169 172 174 173 171 170 170 170 168 167 166 166 165 165 165 166 165 165 163 160 159 157 156 157 150 146 145 141 141 142 147 146 141 140 138 136 135 134 132 131 132 131 132 132 131 130 129 132 137 141 146 146 146 144 143 151 153 154 168 183 184 178 172 168 167 169 171 169 166 166 164 162 162 161 159 157 157 154 148 144 142 143 144
166 167 170 172 174 174 171 171 172 172 171 169 168 168 167 168 169 168 167 167 166 164 164 161 160 160 153 150 149 147 150 153 156 154 149 147 144 143 141 138 136 134 135 134 133 133 131 133 133 135 141 146 150 153 155 154 154 160 162 167 178 183 183 180 173 172 170 172 173 171 170 171 169 167 168 169 168 168 167 164 157 158 161 165 164
166 169 171 172 175 174 173 175 174 174 173 171 169 170 171 171 171 170 169 169 169 169 168 164 162 163 160 157 157 156 159 163 164 160 156 153 148 146 145 143 141 139 140 137 135 135 134 136 138 140 146 150 153 156 157 155 158 163 170 181 189 187 182 176 171 170 171 174 173 170 171 172 172 170 172 175 177 178 179 179 175 175 182 185 181
166 169 171 171 174 174 175 177 176 176 175 172 172 172 172 173 172 172 171 173 174 172 169 165 165 167 167 164 165 167 165 166 168 166 163 159 155 151 151 151 148 147 147 145 142 139 136 138 139 140 146 153 158 161 159 158 160 165 181 191 194 192 186 176 172 170 170 173 167 161 165 168 172 174 175 179 181 181 185 190 188 188 197 197 192
167 168 170 172 174 175 177 180 178 180 178 175 175 173 173 174 175 174 173 176 177 175 171 168 169 172 175 171 172 178 173 170 171 171 171 168 164 161 161 163 159 152 148 148 150 146 140 135 132 131 136 156 168 172 175 171 161 169 187 191 192 194 191 179 175 174 172 172 162 153 158 162 168 173 176 181 184 187 189 193 194 196 203 202 199
168 169 170 172 175 176 179 181 180 182 180 178 177 175 176 177 179 177 175 179 179 178 177 176 177 179 181 178 178 184 179 176 177 178 180 178 176 175 174 176 172 162 154 152 155 156 150 138 133 130 135 155 166 170 179 173 161 170 189 188 189 196 196 185 178 179 178 176 168 159 161 164 167 172 177 182 185 193 197 198 200 202 207 209 207
167 169 170 171 175 177 181 181 182 185 183 181 179 177 179 180 182 179 177 182 182 181 183 182 184 185 185 185 183 186 185 181 182 181 184 187 186 185 182 181 176 166 156 151 153 156 154 147 141 135 146 156 153 153 172 182 169 170 186 188 189 196 196 189 183 185 186 184 182 175 172 172 172 174 177 182 185 191 198 201 203 205 210 214 214
167 170 172 172 174 178 181 182 184 187 187 184 180 179 183 184 183 182 182 184 184 184 186 186 187 187 187 188 188 192 195 191 188 181 179 183 184 183 181 178 174 162 151 147 148 153 152 150 151 150 166 166 163 157 163 192 179 172 185 190 189 194 194 191 186 188 191 189 191 189 185 183 182 183 183 186 189 194 201 205 207 212 217 222 226
170 172 173 174 176 178 180 182 186 189 189 187 184 183 186 187 185 183 185 186 187 189 190 188 186 185 188 191 193 198 202 199 193 185 178 181 179 176 176 174 167 157 150 150 148 153 156 154 157 157 171 178 178 167 135 180 181 175 186 190 186 191 192 194 192 185 187 192 195 196 194 192 191 193 195 198 203 208 214 217 218 222 228 234 239
171 172 173 176 178 179 180 183 187 190 192 191 188 187 187 188 186 185 187 188 189 192 192 188 182 183 190 195 197 200 206 201 194 189 183 182 178 173 173 167 161 158 157 158 151 151 156 157 157 155 168 174 168 166 123 137 177 178 188 193 187 187 192 197 199 189 184 187 194 198 198 199 200 202 205 209 215 220 224 229 232 236 241 246 251
170 172 174 176 177 180 181 183 186 188 191 193 191 190 189 188 187 186 187 189 191 195 195 190 184 182 186 191 196 200 203 198 193 188 181 178 172 169 170 165 161 161 162 164 158 150 156 162 161 158 167 171 165 168 126 118 166 178 188 195 187 185 194 200 203 198 191 187 191 197 201 205 208 210 212 218 225 229 232 235 239 243 247 253 258
170 172 175 176 177 180 182 184 186 186 190 193 191 190 190 188 187 186 187 191 194 197 199 197 190 181 181 185 190 194 193 190 188 183 177 172 167 165 168 166 161 159 159 161 159 156 163 166 164 159 161 169 171 171 139 121 148 172 186 195 191 192 200 205 211 208 202 200 192 191 200 205 208 212 215 225 236 241 243 242 245 247 251 256 260
172 172 174 176 178 181 183 185 188 188 191 193 191 191 190 187 187 186 188 194 197 199 202 199 187 178 179 180 181 185 182 181 183 181 178 174 169 167 168 168 167 162 161 160 154 150 153 156 158 157 155 164 163 150 145 135 138 154 165 179 187 193 197 203 214 216 215 213 204 198 204 202 205 211 213 226 241 247 248 249 250 251 253 256 259
174 174 176 177 179 182 184 187 190 190 191 193 192 191 188 185 187 189 190 195 198 200 197 189 183 182 185 183 184 185 181 180 180 181 183 178 173 172 170 171 174 169 165 161 153 147 145 146 150 151 153 159 160 153 154 156 148 145 142 148 165 176 178 193 212 219 221 220 212 213 221 213 210 213 214 228 240 245 248 250 254 255 255 255 257
174 175 176 179 180 182 185 190 190 189 190 193 192 190 188 186 188 192 192 193 195 193 187 185 188 194 194 191 192 192 189 185 182 185 185 181 179 178 174 171 172 172 171 166 157 153 149 147 146 147 156 161 173 177 168 175 174 156 149 145 149 156 162 178 204 216 220 221 215 218 228 226 227 228 227 231 237 246 250 251 256 259 261 258 257
174 175 176 179 180 181 185 188 188 187 189 191 190 189 189 187 189 192 190 187 188 186 184 189 195 199 200 197 196 197 195 189 187 190 189 187 186 184 179 170 168 173 177 173 167 167 160 154 152 155 164 159 173 186 183 191 185 165 158 153 145 151 164 178 194 207 217 223 218 220 228 229 233 237 236 234 235 245 249 254 264 264 261 255 252
174 175 176 178 179 180 182 183 184 187 189 188 187 187 187 185 188 190 187 184 185 186 186 191 194 194 196 196 195 198 196 192 191 191 192 194 191 186 180 171 171 175 177 176 176 179 174 164 162 166 164 136 139 153 156 165 161 154 160 163 164 173 178 187 200 215 226 230 225 225 230 231 234 236 236 236 236 242 244 248 264 267 257 249 250
175 176 176 178 178 180 181 180 183 188 188 187 185 187 188 186 186 189 188 185 185 187 189 193 196 194 191 192 195 197 197 194 191 190 193 196 191 186 181 172 170 171 173 176 178 183 182 172 167 168 156 133 140 148 148 151 150 155 163 157 173 205 203 205 215 224 229 230 229 231 231 233 237 236 235 237 238 241 243 244 252 259 252 248 252
175 177 177 177 177 179 180 180 184 187 187 187 186 187 188 187 188 189 188 186 187 191 196 198 201 200 194 193 194 196 197 195 192 190 192 194 191 184 180 172 167 168 174 176 178 180 179 174 167 167 156 140 152 161 165 169 162 162 154 139 200 211 227 240 232 228 233 232 232 234 233 237 243 238 234 237 239 240 240 240 245 251 253 256 259
175 176 177 177 178 180 180 180 183 186 186 187 188 189 187 187 190 190 187 187 190 195 198 199 202 203 198 196 196 196 197 197 194 192 190 190 189 182 178 172 168 172 176 176 176 175 174 174 168 168 164 154 159 170 178 182 175 172 148 102 139 107 248 254 233 230 238 238 235 234 233 239 242 236 233 236 240 243 243 241 244 249 255 265 269
177 177 177 177 179 181 182 182 183 185 186 187 188 190 187 185 189 190 190 192 195 194 191 191 196 199 197 197 197 196 197 198 195 193 189 185 185 183 180 176 175 177 178 177 176 173 173 174 171 172 173 176 180 180 187 193 188 188 181 146 108 84 235 232 225 231 234 235 240 238 234 238 238 233 232 234 240 245 246 246 249 254 258 266 272
180 179 178 178 180 182 183 183 184 185 187 187 188 189 187 186 188 190 193 195 194 192 189 188 191 195 197 197 195 194 197 198 196 194 190 187 187 187 187 187 185 180 178 178 176 178 176 172 174 179 185 195 200 194 198 201 194 197 205 199 186 222 207 173 130 236 241 245 248 238 236 240 241 236 231 232 238 243 248 251 253 259 262 264 268
181 180 179 179 180 182 183 184 185 186 187 188 189 189 187 188 191 192 195 195 194 193 193 193 194 196 197 196 194 194 197 198 197 195 192 191 192 192 194 196 193 185 180 178 178 182 180 175 177 183 190 199 204 205 202 204 205 208 212 217 252 237 190 178 173 164 249 257 252 243 248 249 242 239 235 232 235 240 248 251 251 258 263 264 266
180 179 179 179 180 182 184 184 185 186 187 188 190 190 188 189 192 196 198 198 199 195 191 193 195 195 195 195 195 195 197 200 200 199 196 194 196 199 200 199 196 191 187 184 183 184 187 191 190 186 196 203 202 199 196 201 207 214 213 224 268 242 208 214 233 202 154 225 262 250 263 262 241 236 236 234 238 244 250 250 249 256 261 263 264
180 180 180 180 181 182 183 184 185 186 187 188 190 192 191 190 192 198 200 199 202 197 188 191 193 192 195 197 198 197 199 202 201 200 198 198 202 205 205 201 196 195 195 192 188 189 193 198 195 192 202 209 201 195 196 201 206 237 228 220 240 233 224 245 252 229 197 182 280 263 278 274 241 235 238 239 243 248 251 253 254 258 260 260 260
182 181 180 180 181 182 182 184 186 187 188 189 191 192 193 193 193 198 201 200 203 198 188 190 193 192 194 198 200 200 201 203 201 200 201 202 207 210 210 205 199 199 204 201 193 193 196 200 201 201 207 211 203 200 200 200 207 231 219 214 225 226 224 246 244 247 241 214 243 264 276 282 243 240 244 244 246 249 251 253 255 256 256 257 258
183 181 180 180 180 181 183 185 187 188 188 190 192 193 194 195 195 198 201 200 202 199 190 190 193 194 195 198 201 202 203 204 202 203 206 206 209 213 215 209 204 204 208 207 200 197 202 209 211 209 210 209 204 203 200 196 204 218 217 218 226 220 216 232 240 244 247 234 235 267 281 302 274 258 259 250 245 245 247 248 249 251 252 255 260